www.pogodaiklimat.ru

Погода и климат >> Архив погоды >> Россия >> Якутия >> Батамай


ПОГОДА в Батамае

  • Прогноз погоды в Батамае
  • Монитор погоды в Батамае
  • Климат города

АРХИВ ПОГОДЫ в Батамае

Время (UTC), дата Ветер
(напр.,м/с)
 
Видим.   Явления Облачность Т
(С)
Тd
(С)
f
(%)
Тe
(С)
Тes
(С)
Комфортность P
(гПа)
Po
(гПа)
Тmin
(С)
Tmax
(С)
R
(мм)
R24
(мм)
S
(см)
00 10.08 СВ 3 4000 м мгла {морось} 10/10 300 м
[St]
+16.7 +15.9 95 +16 +16 1008.4 998.9 +16.0 1
03 10.08 В 2 10 км слабый дождь 10/10 300 м
[Frnb Ns]
+17.1 +16.6 97 +17 +17 1008.2 998.7
06 10.08 В 3 10 км слабый дождь 10/10 300 м
[Frnb Ns]
+16.9 +16.1 95 +17 +17 1008.4 998.9
09 10.08 В 2 4000 м слабый дождь 10/10 300 м
[Frnb Ns]
+17.0 +16.7 98 +17 +17 1008.8 999.3
12 10.08 СВ 2 4000 м слабый дождь 10/10 300 м
[Frnb Ns]
+16.4 +16.1 98 +16 +16 1009.5 1000.0 +17.6 8
15 10.08 В 1 50 км {дождь} 10/9 600 м
[Cb cap]
+16.2 +16.0 99 +17 +17 1009.7 1000.2
18 10.08 СВ 3 50 км {дождь} 10/10 600 м
[Cb cap]
+15.4 +15.4 100 +15 +15 1009.6 1000.1
21 10.08 СВ 2 4000 м дымка 10/0
[Ac As]
+15.1 +14.8 98 +15 +15 1010.1 1000.6
00 11.08 СВ 3 20 км дымка {ливн. осадки} 10/10 300 м
[Cb cap]
+16.4 +15.7 96 +16 +16 1010.0 1000.5 +14.9 0.4
03 11.08 СВ 2 50 км 10/10 600 м
[Cb cap]
+17.9 +16.1 89 +18 +18 1009.7 1000.4
06 11.08 В 2 50 км 10/10 600 м
[Cb cap]
+19.3 +16.1 82 +22 +22 комфорт 1008.9 999.6
09 11.08 В 1 50 км 10/5 600 м
[Cb cap Ac As]
+19.8 +16.1 79 +23 +24 комфорт 1008.7 999.4
12 11.08 В 1 50 км 10/5 600 м
[Cb cap Ac As]
+18.7 +16.5 87 +21 +21 комфорт 1008.9 999.6 +20.1
15 11.08 СВ 1 50 км 10/10 600 м
[Cb cap]
+17.7 +16.5 93 +19 +19 1008.7 1000.4
18 11.08 СВ 1 50 км 10/10 600 м
[Cb cap]
+17.2 +16.7 97 +18 +18 1008.9 999.4
21 11.08 СВ 1 20 км дым 10/10 600 м
[Cb cap]
+17.1 +16.9 99 +18 +18 1009.7 1000.2
00 12.08 СВ 1 20 км дым 10/10 600 м
[Cb cap]
+18.0 +17.5 97 +19 +19 1009.9 1000.6 +17.1
03 12.08 ЮЗ 1 20 км дым 10/6 600 м
[Cb cap Cs]
+20.9 +17.2 79 +21 +24 комфорт 1010.4 1001.1
06 12.08 ЮЗ 2 20 км дым {ливн. осадки} 10/10 600 м
[Cb cap]
+21.3 +17.6 79 +25 +25 комфорт 1010.2 1000.9
09 12.08 З 3 20 км дым 6/3 600 м
[Cb cap Ci fib]
+23.9 +15.5 59 +27 +28 жарко 1010.2 1001.1
12 12.08 З 2 20 км дым 4/0
[Ac trans Ci fib]
+20.5 +14.7 69 +24 +24 комфорт 1011.1 1001.8 +23.9 0.0
15 12.08 З 1 50 км 4/0
[Ci fib]
+18.9 +17.1 89 +21 +21 комфорт 1021.5 1002.2
18 12.08 З 2 50 км 3/0
[Ci fib]
+18.1 +17.6 97 +19 +19 1022.2 1002.9
21 12.08 СЗ 1 50 км 6/0
[Ci fib]
+16.7 +16.0 96 +18 +18 1013.6 1004.1
00 13.08 З 2 50 км 3/0
[Ci fib]
+20.9 +17.2 79 +25 +30 комфорт 1014.2 1004.9 +16.0
03 13.08 З 3 20 км дым 3/0
[Ci fib]
+23.4 +19.3 78 +30 +37 очень
душно
1013.9 1004.8
06 13.08 ЮЗ 3 20 км дым 8/0
[Ci fib]
+26.1 +18.6 63 +31 +36 очень
душно
1013.7 1004.6
09 13.08 ЮЗ 2 20 км дым 10/0
[Ci fib]
+24.1 +18.4 70 +29 +30 душно 1013.7 1004.6
12 13.08 ЮЗ 1 20 км дым 5/0
[Ci fib]
+20.9 +18.8 88 +26 +26 душно 1014.2 1004.9 +26.4
15 13.08 штиль 0 20 км дым 3/0
[Ci fib]
+15.4 +14.9 97 +15 +15 1014.8 1005.2
18 13.08 СВ 1 10 км дым ясно +11.7 +11.5 99 +11 +11 1015.6 1005.9
21 13.08 СВ 1 2000 м мгла 10/0
[Cs]
+11.0 +11.0 100 +11 +11 1017.0 1007.3
00 14.08 ЮВ 1 4000 м мгла 10/0
[Cs]
+19.5 +15.8 79 +23 +27 комфорт 1016.7 1007.3 +9.9
03 14.08 С 1 4000 м мгла 10/0
[Cs]
+22.8 +17.3 71 +28 +36 душно 1016.0 1006.2
06 14.08 штиль 0 10 км дым 10/0
[Cs]
+27.3 +15.2 48 +30 +37 душно 1014.5 1005.3
09 14.08 штиль 0 20 км дым 10/0
[Cs]
+28.4 +14.6 43 +31 +32 душно 1013.5 1004.5
12 14.08 штиль 0 20 км дым 10/0
[Cs]
+20.3 +13.3 64 +22 +22 комфорт 1013.3 1004.0 +28.7
15 14.08 штиль 0 20 км дым 10/0
[Cs]
+18.0 +14.0 77 +18 +18 1013.1 1003.9
18 14.08 СВ 2 20 км дым 10/0
[Cs]
+15.5 +13.0 85 +15 +15 1013.6 1004.1
21 14.08 СВ 1 20 км дым 10/0
[Cs]
+15.6 +12.3 81 +16 +17 1013.9 1004.4
00 15.08 В 1 20 км дым 10/0
[Cs]
+22.9 +14.3 58 +26 +31 жарко 1013.5 1004.4 +13.1
03 15.08 ЮВ 3 50 км 10/0
[Ac trans Cs]
+28.5 +16.1 47 +32 +37 душно 1013.0 1004.0
06 15.08 ЮВ 4 50 км 10/3 600 м
[Cb cap Ac trans Ci fib]
+30.1 +15.4 41 +33 +34 душно 1012.0 1003.0
09 15.08 В 4 50 км 8/3 600 м
[Cb cap Ac trans Ci fib]
+29.7 +15.7 43 +33 +33 душно 1011.3 1002.3
12 15.08 СВ 3 50 км 4/0
[Ac trans Ci fib]
+24.9 +13.9 50 +27 +27 жарко 1011.4 1002.3 +30.5
15 15.08 СВ 2 10 км дым 3/0
[Ci fib]
+20.5 +13.0 62 +23 +23 комфорт 1011.6 1002.3
18 15.08 СВ 4 2000 м мгла 3/0
[Ci fib]
+18.7 +13.6 72 +19 +19 1011.6 1002.3
21 15.08 СВ 3 2000 м мгла 10/3 600 м
[Cb cap Ac trans Cs]
+18.9 +13.3 70 +20 +20 1011.1 1001.8
00 16.08 В 1 4000 м мгла {ливн. осадки} 10/10 600 м
[Cb cap]
+18.3 +14.7 80 +20 +20 1012.1 1002.8 +18.3 0.4
03 16.08 ЮВ 3 4000 м мгла {ливн. осадки} 10/6 600 м
[Cb cap Ac As]
+20.1 +16.5 80 +23 +24 комфорт 1012.4 1003.1
06 16.08 З 5 4000 м мгла {ливн. осадки} 10/10 600 м
[Cb cap]
+19.5 +17.7 89 +22 +22 комфорт 1012.8 1003.5
09 16.08 З 4 20 км дым 10/10 600 м
[Cb cap]
+16.6 +15.2 91 +16 +16 1014.3 1004.8
12 16.08 З 5 20 км дым 10/10 600 м
[Cb cap]
+14.9 +11.8 82 +13 +13 1014.7 1005.1 +20.4 0.3
15 16.08 З 4 50 км 5/3 600 м
[Cb cap Ci fib]
+12.9 +9.8 81 +11 +11 1015.1 1005.5
18 16.08 З 3 50 км 6/3 600 м
[Cb cap Ac trans Ci fib]
+11.8 +9.0 83 +10 +10 1014.8 1005.1
21 16.08 З 3 50 км 10/3 600 м
[Cb cap Ac trans Ci fib]
+12.1 +8.7 80 +11 +11 1014.3 1004.7

 

Местоположение метеостанции Батамай (Якутия, Россия): широта 63.52 долгота 129.40 высота над уровнем моря 79 м.

В архиве по умолчанию представлена погода в Батамае за последнюю неделю. Архивные данные за месяц целиком и за предыдущие месяцы, начиная с января 2011 года, Вы можете получить, выбрав интересующий диапазон дат из раскрывающегося списка и нажав кнопку "Ввод!".

Внимание! Время в таблицах - всемирное. Для получения местного времени необходимо прибавить поправку, которая в Батамае равна 9 ч.

Смотрите также архив погоды в соседних городах и на ближайших метеорологических станциях:

Погода в Сеген-Кюели (Якутия, Россия) (69 км)
Погода в Намцах (Якутия, Россия) (90 км)
Погода в Сангаре (Якутия, Россия) (109 км)
Погода в Верхоянском Перевозе (Якутия, Россия) (131 км)
Погода в Якутске (Якутия, Россия) (169 км)
Погода в Сого-Хае (Якутия, Россия) (169 км)
Погода в Бердигестяхе (Якутия, Россия) (185 км)
Погода в Себян-Кюеле (Якутия, Россия) (200 км)
Погода в Покровске (Якутия, Россия) (227 км)
Погода в Хатырык-Хомо (Якутия, Россия) (231 км)

Пояснения к столбцам:

Ветер - указаны скорость ветра в м/с - средняя за 10 мин, порывы в срок и между сроками (в фигурных скобках) и направление, откуда дует ветер: С - северный, СВ - северо-восточный, В - восточный, ЮВ - юго-восточный, Ю - южный, ЮЗ - юго-западный, З - западный, СЗ - северо-западный.
Видимость - горизонтальная дальность видимости в метрах или километрах. При видимости от 1 до 10 км при отсутствии осадков обычно наблюдается дымка, при ухудшении видимости до 1 км и менее - туман. В сухую погоду видимость может ухудшаться дымом, пылью или мглою.
Явления - указаны атмосферные явления, наблюдавшиеся в срок или в последний час перед сроком; фигурными скобками обозначены явления, наблюдавшиеся между сроками (за 1-3 часа до срока); квадратными скобками обозначены град или гололедные отложения с указанием их диаметра в мм.
Облачность - указаны через наклонную черту общая и нижняя облачность в баллах и высота нижней границы облаков в метрах; квадратными скобками обозначены формы облаков: Ci - перистые, Cs - перисто-слоистые, Cc - перисто-кучевые, Ac - высококучевые, As - высокослоистые, Sc - слоисто-кучевые, Ns - слоисто-дождевые, Cu - кучевые, Cb - кучево-дождевые. Подробнее классификацию облаков см. в Атласе облаков (PDF).
T - Температура воздуха - температура, измеренная на высоте 2 м над землей.
Td - Температура точки росы - температура, при понижении до которой содержащийся в воздухе водяной пар достигнет насыщения.
f - Относительная влажность воздуха - влажноcть воздуха, измеренная на высоте 2 м над землей.
Te - Эффективная температура - температура, которую ощущает одетый по сезону человек в тени. Характеристика душности погоды. При расчете учитывается влияние влажности воздуха и скорости ветра на теплоощущения человека.
Tes - Эффективная температура на солнце - температура, которую ощущает человек, с поправкой на солнечный нагрев. Характеристика знойности погоды. Зависит от высоты солнца над горизонтом, облачности и скорости ветра. Ночью, в пасмурную погоду, а также при ветре 12 м/с и более поправка равна нулю.
P - Атмосферное давление - приведенное к уровню моря атмосферное давление.
Po - Атмосферное давление - измеренное на уровне метеостанции атмосферное давление.
Tmin - Минимальная температура - минимум температуры воздуха на высоте 2 м над землей.
Tmax - Максимальная температура - максимум температуры воздуха на высоте 2 м над землей.
R - Количество осадков - Количество выпавших осадков за период времени, мм. При наведении курсора мыши на число - период времени, за который выпало указанное количество осадков.
R24 - Количество осадков - Количество выпавших осадков за 24 часа, мм.
S - Снежный покров - Высота снежного покрова, см. При наведении курсора мыши на число - состояние снежного покрова и степень покрытия местности в баллах.